QPF
0.05 0.05 0.04 0.02 0.02 0.01 0.01 0.01 0.00 0.00 0.00 0.00 0.01 0.01 0.01 0.01 0.00 0.00 0.00 0.00 0.00 0.00 0.00 0.00 0.00 0.00 0.01 0.01 0.00 0.00 0.00 0.00 0.00 0.00 0.00 0.00 0.00 0.00 0.00 0.00 0.00 0.00 0.00
0.03 0.03 0.03 0.04 0.04 0.03 0.02 0.02 0.02 0.01 0.01 0.01 0.01 0.02 0.01 0.01 0.01 0.01 0.01 0.01 0.00 0.00 0.00 0.00 0.00 0.00 0.01 0.01 0.01 0.00 0.00 0.01 0.01 0.00 0.00 0.00 0.00 0.00 0.00 0.00 0.00 0.00 0.00
0.04 0.04 0.04 0.06 0.06 0.05 0.04 0.03 0.02 0.02 0.01 0.02 0.02 0.02 0.02 0.02 0.02 0.02 0.02 0.02 0.02 0.01 0.00 0.00 0.00 0.00 0.00 0.01 0.01 0.00 0.00 0.00 0.01 0.01 0.00 0.00 0.00 0.00 0.00 0.00 0.00 0.00 0.00
0.05 0.07 0.08 0.10 0.10 0.08 0.04 0.03 0.02 0.02 0.02 0.01 0.01 0.01 0.01 0.02 0.01 0.02 0.02 0.02 0.02 0.01 0.01 0.01 0.01 0.01 0.00 0.00 0.00 0.00 0.00 0.01 0.01 0.01 0.00 0.00 0.00 0.00 0.00 0.00 0.00 0.00 0.00
0.03 0.04 0.06 0.06 0.07 0.07 0.05 0.04 0.03 0.02 0.02 0.02 0.01 0.01 0.01 0.01 0.01 0.01 0.01 0.02 0.02 0.02 0.02 0.02 0.02 0.01 0.00 0.00 0.00 0.00 0.01 0.01 0.01 0.01 0.00 0.00 0.00 0.00 0.00 0.00 0.00 0.00 0.00
0.02 0.02 0.02 0.03 0.04 0.03 0.03 0.03 0.03 0.02 0.02 0.02 0.01 0.02 0.01 0.01 0.02 0.02 0.02 0.01 0.01 0.02 0.02 0.02 0.01 0.01 0.01 0.00 0.00 0.00 0.00 0.01 0.01 0.01 0.01 0.00 0.01 0.01 0.01 0.00 0.00 0.00 0.00
0.02 0.01 0.01 0.02 0.04 0.03 0.03 0.04 0.04 0.04 0.04 0.03 0.02 0.02 0.02 0.02 0.02 0.01 0.01 0.01 0.00 0.00 0.01 0.01 0.01 0.01 0.01 0.01 0.01 0.00 0.00 0.00 0.00 0.00 0.00 0.00 0.01 0.01 0.01 0.01 0.01 0.01 0.01
0.03 0.03 0.03 0.05 0.06 0.07 0.07 0.05 0.05 0.05 0.04 0.02 0.01 0.01 0.01 0.01 0.01 0.01 0.01 0.00 0.00 0.00 0.01 0.01 0.01 0.02 0.02 0.02 0.02 0.02 0.02 0.01 0.01 0.01 0.00 0.00 0.00 0.01 0.01 0.01 0.01 0.01 0.01
0.11 0.11 0.09 0.08 0.10 0.11 0.11 0.10 0.09 0.08 0.05 0.03 0.02 0.02 0.02 0.01 0.00 0.00 0.00 0.00 0.00 0.00 0.00 0.01 0.01 0.01 0.01 0.01 0.01 0.01 0.01 0.01 0.01 0.01 0.01 0.00 0.00 0.00 0.00 0.01 0.01 0.01 0.00
0.11 0.14 0.15 0.15 0.17 0.16 0.15 0.14 0.12 0.11 0.08 0.06 0.05 0.04 0.03 0.02 0.02 0.01 0.01 0.00 0.00 0.00 0.01 0.01 0.01 0.01 0.01 0.01 0.01 0.02 0.01 0.01 0.02 0.02 0.02 0.01 0.00 0.00 0.00 0.00 0.00 0.01 0.00
0.07 0.09 0.10 0.11 0.12 0.13 0.14 0.14 0.13 0.11 0.09 0.08 0.07 0.07 0.07 0.06 0.05 0.03 0.02 0.01 0.01 0.01 0.00 0.00 0.01 0.01 0.01 0.01 0.01 0.01 0.01 0.01 0.02 0.02 0.02 0.02 0.02 0.01 0.01 0.01 0.01 0.00 0.00
0.05 0.05 0.06 0.06 0.08 0.08 0.08 0.09 0.10 0.12 0.11 0.09 0.08 0.06 0.05 0.05 0.04 0.03 0.02 0.01 0.01 0.01 0.00 0.00 0.00 0.00 0.00 0.00 0.00 0.00 0.00 0.00 0.01 0.01 0.01 0.01 0.01 0.01 0.01 0.02 0.03 0.03 0.02
0.05 0.05 0.06 0.05 0.05 0.06 0.07 0.07 0.08 0.10 0.11 0.11 0.11 0.11 0.09 0.06 0.07 0.04 0.02 0.01 0.01 0.01 0.00 0.00 0.00 0.00 0.00 0.00 0.00 0.00 0.00 0.00 0.00 0.00 0.00 0.00 0.00 0.01 0.01 0.03 0.05 0.07 0.05
0.05 0.06 0.05 0.05 0.05 0.05 0.05 0.05 0.06 0.08 0.08 0.08 0.08 0.09 0.08 0.08 0.08 0.06 0.04 0.03 0.03 0.01 0.01 0.00 0.00 0.00 0.00 0.00 0.00 0.00 0.00 0.00 0.00 0.01 0.01 0.01 0.01 0.02 0.02 0.03 0.05 0.08 0.08
0.05 0.05 0.05 0.05 0.06 0.06 0.05 0.04 0.04 0.04 0.04 0.05 0.05 0.05 0.05 0.06 0.06 0.06 0.05 0.04 0.03 0.02 0.01 0.01 0.01 0.01 0.01 0.01 0.02 0.02 0.03 0.04 0.04 0.03 0.03 0.03 0.04 0.04 0.04 0.05 0.07 0.09 0.09
0.03 0.03 0.03 0.03 0.03 0.03 0.03 0.03 0.03 0.03 0.03 0.03 0.02 0.02 0.02 0.02 0.03 0.03 0.03 0.02 0.02 0.01 0.01 0.00 0.00 0.01 0.01 0.02 0.03 0.04 0.05 0.07 0.07 0.09 0.09 0.08 0.08 0.08 0.08 0.09 0.10 0.11 0.10
0.02 0.02 0.02 0.02 0.02 0.01 0.01 0.01 0.01 0.02 0.02 0.02 0.01 0.01 0.01 0.01 0.01 0.01 0.01 0.01 0.01 0.00 0.00 0.00 0.00 0.01 0.01 0.02 0.03 0.04 0.05 0.05 0.07 0.08 0.09 0.09 0.10 0.12 0.13 0.13 0.13 0.13 0.11
0.01 0.02 0.02 0.02 0.02 0.02 0.01 0.01 0.01 0.01 0.01 0.01 0.01 0.01 0.00 0.00 0.00 0.00 0.00 0.00 0.00 0.00 0.01 0.01 0.02 0.03 0.04 0.05 0.06 0.06 0.06 0.07 0.09 0.10 0.11 0.13 0.15 0.16 0.16 0.16 0.15 0.14 0.14
0.00 0.01 0.00 0.01 0.01 0.00 0.00 0.00 0.00 0.00 0.00 0.00 0.00 0.00 0.00 0.00 0.00 0.00 0.00 0.00 0.01 0.02 0.03 0.04 0.04 0.05 0.06 0.07 0.07 0.07 0.09 0.10 0.11 0.13 0.15 0.17 0.19 0.20 0.17 0.16 0.15 0.15 0.15
0.00 0.00 0.00 0.00 0.00 0.00 0.00 0.00 0.00 0.00 0.00 0.00 0.00 0.00 0.00 0.00 0.00 0.00 0.01 0.02 0.03 0.03 0.05 0.05 0.06 0.06 0.06 0.07 0.08 0.08 0.09 0.09 0.11 0.13 0.15 0.16 0.17 0.18 0.17 0.16 0.15 0.15 0.15
0.00 0.00 0.00 0.00 0.00 0.01 0.00 0.00 0.00 0.00 0.00 0.00 0.00 0.00 0.00 0.00 0.00 0.01 0.01 0.02 0.03 0.03 0.05 0.05 0.06 0.06 0.07 0.08 0.08 0.09 0.10 0.11 0.12 0.14 0.16 0.17 0.18 0.18 0.17 0.16 0.15 0.15 0.15
0.00 0.00 0.00 0.00 0.00 0.00 0.00 0.00 0.00 0.00 0.00 0.00 0.00 0.00 0.00 0.01 0.01 0.02 0.02 0.03 0.03 0.04 0.05 0.06 0.05 0.07 0.08 0.09 0.10 0.11 0.12 0.12 0.14 0.15 0.15 0.15 0.17 0.17 0.17 0.16 0.15 0.15 0.15
0.00 0.00 0.00 0.00 0.00 0.00 0.00 0.00 0.00 0.00 0.00 0.00 0.01 0.00 0.01 0.01 0.02 0.02 0.03 0.04 0.05 0.07 0.07 0.07 0.07 0.07 0.08 0.08 0.09 0.10 0.12 0.12 0.11 0.12 0.13 0.12 0.13 0.13 0.14 0.14 0.13 0.14 0.15
0.00 0.00 0.00 0.00 0.00 0.00 0.00 0.00 0.00 0.01 0.01 0.01 0.01 0.01 0.02 0.02 0.03 0.03 0.05 0.06 0.06 0.07 0.07 0.08 0.08 0.08 0.08 0.09 0.10 0.09 0.10 0.08 0.07 0.08 0.10 0.11 0.11 0.12 0.13 0.13 0.12 0.12 0.13
0.00 0.00 0.00 0.00 0.00 0.00 0.01 0.01 0.01 0.02 0.02 0.01 0.02 0.02 0.03 0.03 0.04 0.04 0.04 0.04 0.04 0.04 0.05 0.06 0.07 0.07 0.07 0.07 0.08 0.07 0.06 0.05 0.04 0.05 0.06 0.08 0.09 0.11 0.13 0.14 0.14 0.13 0.12
0.00 0.00 0.00 0.01 0.01 0.01 0.01 0.01 0.01 0.01 0.01 0.01 0.02 0.03 0.03 0.03 0.03 0.03 0.03 0.04 0.04 0.05 0.05 0.05 0.05 0.06 0.07 0.06 0.07 0.07 0.05 0.04 0.03 0.03 0.03 0.04 0.05 0.06 0.07 0.10 0.11 0.11 0.10
MSLP
1012.59 1012.98 1013.36 1013.70 1014.00 1014.27 1014.52 1014.77 1015.05 1015.37 1015.73 1016.12 1016.52 1016.90 1017.24 1017.54 1017.78 1017.98 1018.14 1018.30 1018.45 1018.61 1018.79 1018.96 1019.12 1019.27 1019.38 1019.45 1019.48 1019.48 1019.46 1019.42 1019.36 1019.28 1019.18 1019.03 1018.84 1018.60 1018.33 1018.04 1017.76 1017.51 1017.33
1011.93 1012.35 1012.75 1013.11 1013.44 1013.74 1014.03 1014.32 1014.64 1014.99 1015.36 1015.76 1016.15 1016.52 1016.85 1017.14 1017.38 1017.57 1017.74 1017.91 1018.07 1018.24 1018.41 1018.58 1018.73 1018.86 1018.96 1019.03 1019.08 1019.11 1019.13 1019.14 1019.13 1019.11 1019.05 1018.94 1018.77 1018.53 1018.24 1017.90 1017.56 1017.23 1016.97
1011.23 1011.70 1012.13 1012.51 1012.86 1013.18 1013.49 1013.81 1014.16 1014.53 1014.93 1015.34 1015.73 1016.10 1016.43 1016.71 1016.95 1017.14 1017.32 1017.48 1017.65 1017.82 1017.99 1018.15 1018.30 1018.43 1018.53 1018.61 1018.67 1018.72 1018.77 1018.83 1018.88 1018.91 1018.90 1018.84 1018.71 1018.49 1018.20 1017.84 1017.46 1017.08 1016.73
1010.53 1011.03 1011.48 1011.88 1012.23 1012.56 1012.88 1013.22 1013.58 1013.98 1014.40 1014.83 1015.24 1015.62 1015.95 1016.23 1016.47 1016.66 1016.84 1017.01 1017.17 1017.35 1017.52 1017.69 1017.85 1017.98 1018.09 1018.18 1018.25 1018.32 1018.40 1018.48 1018.57 1018.64 1018.69 1018.68 1018.59 1018.41 1018.15 1017.81 1017.42 1017.01 1016.62
1009.86 1010.38 1010.84 1011.22 1011.56 1011.87 1012.18 1012.52 1012.90 1013.31 1013.75 1014.20 1014.63 1015.03 1015.38 1015.67 1015.91 1016.11 1016.28 1016.45 1016.63 1016.81 1017.00 1017.18 1017.36 1017.51 1017.63 1017.73 1017.82 1017.90 1017.98 1018.08 1018.18 1018.28 1018.36 1018.39 1018.36 1018.24 1018.03 1017.73 1017.37 1016.97 1016.55
1009.30 1009.79 1010.21 1010.56 1010.85 1011.12 1011.41 1011.73 1012.10 1012.52 1012.97 1013.44 1013.90 1014.32 1014.69 1014.99 1015.24 1015.45 1015.63 1015.81 1016.00 1016.19 1016.40 1016.61 1016.81 1016.98 1017.13 1017.24 1017.34 1017.42 1017.50 1017.58 1017.69 1017.79 1017.88 1017.94 1017.95 1017.89 1017.75 1017.52 1017.21 1016.85 1016.45
1008.89 1009.32 1009.67 1009.94 1010.16 1010.37 1010.60 1010.88 1011.23 1011.65 1012.11 1012.59 1013.07 1013.51 1013.89 1014.21 1014.48 1014.70 1014.89 1015.08 1015.28 1015.50 1015.74 1015.97 1016.20 1016.40 1016.57 1016.70 1016.79 1016.86 1016.92 1016.98 1017.05 1017.13 1017.21 1017.28 1017.32 1017.31 1017.24 1017.09 1016.87 1016.58 1016.23
1008.69 1009.02 1009.26 1009.43 1009.56 1009.68 1009.84 1010.08 1010.39 1010.78 1011.24 1011.73 1012.21 1012.67 1013.07 1013.40 1013.68 1013.90 1014.11 1014.31 1014.53 1014.77 1015.03 1015.29 1015.54 1015.77 1015.95 1016.08 1016.17 1016.21 1016.23 1016.25 1016.27 1016.30 1016.35 1016.41 1016.46 1016.49 1016.48 1016.41 1016.28 1016.08 1015.82
1008.74 1008.94 1009.06 1009.11 1009.13 1009.16 1009.25 1009.41 1009.68 1010.04 1010.48 1010.96 1011.45 1011.91 1012.31 1012.65 1012.94 1013.17 1013.38 1013.59 1013.82 1014.07 1014.34 1014.62 1014.88 1015.12 1015.30 1015.42 1015.48 1015.49 1015.46 1015.41 1015.37 1015.34 1015.34 1015.37 1015.41 1015.46 1015.50 1015.50 1015.46 1015.36 1015.20
1009.01 1009.09 1009.09 1009.03 1008.95 1008.89 1008.90 1009.00 1009.22 1009.54 1009.95 1010.41 1010.89 1011.34 1011.74 1012.09 1012.37 1012.60 1012.81 1013.02 1013.24 1013.48 1013.74 1014.00 1014.26 1014.48 1014.64 1014.73 1014.76 1014.71 1014.62 1014.51 1014.39 1014.29 1014.23 1014.22 1014.24 1014.29 1014.35 1014.41 1014.45 1014.44 1014.38
1009.50 1009.46 1009.36 1009.21 1009.04 1008.91 1008.86 1008.91 1009.08 1009.36 1009.73 1010.17 1010.62 1011.06 1011.45 1011.78 1012.06 1012.28 1012.47 1012.65 1012.84 1013.05 1013.27 1013.50 1013.71 1013.88 1014.00 1014.04 1014.01 1013.90 1013.75 1013.57 1013.38 1013.21 1013.09 1013.02 1013.01 1013.05 1013.13 1013.22 1013.31 1013.38 1013.40
1010.12 1010.01 1009.84 1009.62 1009.40 1009.22 1009.12 1009.13 1009.26 1009.51 1009.85 1010.25 1010.67 1011.09 1011.46 1011.77 1012.02 1012.21 1012.37 1012.51 1012.65 1012.80 1012.95 1013.10 1013.24 1013.33 1013.37 1013.34 1013.24 1013.07 1012.86 1012.61 1012.36 1012.14 1011.96 1011.85 1011.80 1011.82 1011.89 1012.00 1012.12 1012.24 1012.33
1010.81 1010.66 1010.44 1010.20 1009.95 1009.75 1009.62 1009.61 1009.71 1009.92 1010.22 1010.59 1010.98 1011.36 1011.70 1011.98 1012.20 1012.36 1012.47 1012.55 1012.62 1012.68 1012.73 1012.78 1012.81 1012.81 1012.75 1012.63 1012.46 1012.23 1011.95 1011.66 1011.36 1011.10 1010.89 1010.73 1010.66 1010.65 1010.71 1010.81 1010.94 1011.08 1011.22
1011.48 1011.31 1011.08 1010.83 1010.58 1010.37 1010.24 1010.20 1010.28 1010.46 1010.72 1011.05 1011.40 1011.74 1012.04 1012.28 1012.46 1012.58 1012.63 1012.64 1012.63 1012.59 1012.54 1012.47 1012.38 1012.26 1012.10 1011.89 1011.64 1011.35 1011.03 1010.70 1010.38 1010.10 1009.86 1009.69 1009.59 1009.56 1009.59 1009.68 1009.81 1009.95 1010.10
1012.05 1011.87 1011.64 1011.39 1011.15 1010.95 1010.81 1010.77 1010.82 1010.96 1011.19 1011.47 1011.77 1012.06 1012.32 1012.52 1012.65 1012.71 1012.71 1012.65 1012.55 1012.42 1012.26 1012.07 1011.87 1011.64 1011.38 1011.09 1010.77 1010.44 1010.09 1009.74 1009.42 1009.13 1008.89 1008.72 1008.60 1008.56 1008.57 1008.63 1008.74 1008.87 1009.01
1012.46 1012.27 1012.04 1011.79 1011.56 1011.36 1011.21 1011.15 1011.18 1011.28 1011.46 1011.69 1011.93 1012.17 1012.37 1012.52 1012.61 1012.62 1012.56 1012.44 1012.26 1012.05 1011.80 1011.53 1011.23 1010.91 1010.58 1010.23 1009.87 1009.50 1009.15 1008.80 1008.49 1008.21 1007.98 1007.81 1007.69 1007.63 1007.63 1007.67 1007.74 1007.85 1007.97
1012.69 1012.47 1012.23 1011.98 1011.74 1011.53 1011.38 1011.29 1011.28 1011.34 1011.47 1011.63 1011.81 1011.99 1012.13 1012.22 1012.26 1012.22 1012.11 1011.94 1011.72 1011.45 1011.14 1010.80 1010.45 1010.08 1009.71 1009.33 1008.95 1008.58 1008.23 1007.91 1007.61 1007.35 1007.14 1006.97 1006.85 1006.78 1006.76 1006.77 1006.82 1006.90 1006.99
1012.75 1012.50 1012.23 1011.96 1011.71 1011.49 1011.32 1011.21 1011.16 1011.17 1011.23 1011.32 1011.43 1011.54 1011.61 1011.65 1011.63 1011.54 1011.40 1011.19 1010.94 1010.64 1010.31 1009.95 1009.58 1009.20 1008.82 1008.44 1008.08 1007.73 1007.40 1007.10 1006.82 1006.58 1006.38 1006.22 1006.09 1006.01 1005.96 1005.95 1005.98 1006.03 1006.10
1012.71 1012.41 1012.11 1011.82 1011.55 1011.32 1011.13 1010.99 1010.91 1010.87 1010.87 1010.89 1010.93 1010.95 1010.95 1010.92 1010.84 1010.70 1010.52 1010.30 1010.03 1009.72 1009.40 1009.05 1008.70 1008.35 1007.99 1007.65 1007.32 1007.00 1006.70 1006.42 1006.16 1005.93 1005.73 1005.56 1005.42 1005.32 1005.25 1005.22 1005.22 1005.25 1005.30
1012.64 1012.31 1011.98 1011.68 1011.40 1011.17 1010.97 1010.81 1010.69 1010.61 1010.56 1010.51 1010.47 1010.41 1010.33 1010.22 1010.07 1009.88 1009.66 1009.41 1009.13 1008.84 1008.53 1008.22 1007.91 1007.60 1007.30 1007.00 1006.72 1006.44 1006.16 1005.90 1005.66 1005.42 1005.21 1005.02 1004.86 1004.73 1004.63 1004.57 1004.55 1004.56 1004.60
1012.63 1012.29 1011.96 1011.67 1011.40 1011.17 1010.98 1010.83 1010.69 1010.58 1010.48 1010.37 1010.25 1010.11 1009.94 1009.74 1009.51 1009.26 1008.99 1008.70 1008.41 1008.12 1007.83 1007.56 1007.29 1007.03 1006.78 1006.54 1006.29 1006.05 1005.80 1005.55 1005.29 1005.04 1004.80 1004.58 1004.38 1004.21 1004.09 1004.00 1003.96 1003.96 1003.99
1012.78 1012.45 1012.15 1011.88 1011.65 1011.46 1011.30 1011.16 1011.03 1010.90 1010.76 1010.60 1010.40 1010.18 1009.91 1009.62 1009.30 1008.96 1008.62 1008.29 1007.96 1007.66 1007.37 1007.12 1006.88 1006.66 1006.45 1006.24 1006.03 1005.80 1005.56 1005.30 1005.03 1004.75 1004.48 1004.21 1003.97 1003.77 1003.60 1003.49 1003.43 1003.42 1003.44
1013.14 1012.86 1012.61 1012.39 1012.22 1012.07 1011.95 1011.85 1011.73 1011.60 1011.44 1011.23 1010.97 1010.66 1010.31 1009.92 1009.49 1009.06 1008.63 1008.22 1007.84 1007.49 1007.18 1006.92 1006.68 1006.47 1006.27 1006.08 1005.87 1005.65 1005.40 1005.12 1004.82 1004.51 1004.19 1003.88 1003.60 1003.35 1003.15 1003.01 1002.93 1002.91 1002.93
1013.71 1013.50 1013.31 1013.16 1013.05 1012.96 1012.89 1012.82 1012.73 1012.60 1012.42 1012.18 1011.87 1011.48 1011.04 1010.55 1010.03 1009.49 1008.96 1008.45 1007.99 1007.57 1007.21 1006.90 1006.63 1006.40 1006.18 1005.97 1005.75 1005.51 1005.24 1004.94 1004.60 1004.25 1003.89 1003.54 1003.22 1002.94 1002.71 1002.55 1002.45 1002.41 1002.42
1014.47 1014.32 1014.19 1014.11 1014.05 1014.01 1013.99 1013.94 1013.87 1013.75 1013.55 1013.28 1012.92 1012.47 1011.96 1011.38 1010.76 1010.12 1009.49 1008.88 1008.32 1007.82 1007.37 1006.99 1006.66 1006.38 1006.12 1005.87 1005.61 1005.34 1005.03 1004.70 1004.34 1003.96 1003.57 1003.19 1002.84 1002.53 1002.28 1002.09 1001.97 1001.92 1001.92
1015.32 1015.23 1015.15 1015.11 1015.09 1015.08 1015.07 1015.04 1014.97 1014.84 1014.63 1014.34 1013.94 1013.45 1012.87 1012.22 1011.52 1010.80 1010.08 1009.38 1008.73 1008.13 1007.60 1007.13 1006.72 1006.36 1006.04 1005.73 1005.43 1005.11 1004.78 1004.42 1004.03 1003.63 1003.22 1002.83 1002.46 1002.14 1001.87 1001.67 1001.54 1001.47 1001.45
Thickness
5747 5744 5743 5740 5740 5739 5738 5737 5735 5733 5731 5728 5724 5722 5719 5717 5715 5712 5710 5709 5706 5703 5702 5700 5698 5696 5694 5693 5691 5689 5686 5683 5677 5680 5683 5685 5683 5681 5680 5678 5677 5677 5677
5749 5746 5744 5741 5740 5737 5736 5736 5734 5731 5728 5726 5723 5720 5717 5715 5713 5710 5706 5706 5703 5700 5698 5697 5695 5694 5691 5688 5686 5685 5683 5682 5677 5674 5676 5678 5679 5679 5678 5676 5675 5676 5676
5750 5746 5742 5740 5738 5736 5735 5734 5732 5729 5725 5723 5720 5717 5715 5713 5711 5708 5705 5703 5701 5699 5697 5694 5692 5690 5687 5685 5683 5681 5680 5680 5677 5673 5672 5674 5675 5675 5674 5673 5673 5673 5673
5751 5746 5742 5740 5738 5735 5733 5732 5729 5726 5723 5720 5718 5715 5713 5711 5709 5706 5703 5701 5698 5697 5694 5692 5690 5687 5684 5682 5679 5677 5675 5673 5672 5670 5669 5669 5670 5672 5670 5667 5666 5668 5668
5752 5747 5743 5741 5738 5734 5730 5728 5726 5723 5720 5717 5715 5712 5710 5708 5706 5704 5701 5698 5695 5693 5691 5689 5687 5685 5683 5680 5678 5675 5672 5669 5667 5665 5664 5664 5664 5664 5663 5663 5661 5662 5663
5752 5747 5744 5740 5736 5732 5729 5726 5723 5719 5717 5714 5711 5708 5706 5705 5703 5700 5697 5694 5692 5689 5687 5685 5684 5682 5680 5677 5674 5672 5668 5664 5662 5660 5658 5657 5658 5659 5658 5657 5654 5653 5652
5751 5747 5743 5739 5734 5730 5727 5722 5719 5715 5713 5710 5707 5704 5702 5700 5698 5695 5691 5689 5687 5685 5682 5680 5679 5681 5678 5675 5672 5668 5665 5662 5658 5655 5653 5652 5652 5652 5651 5649 5648 5646 5646
5747 5744 5741 5736 5731 5727 5722 5718 5715 5711 5708 5705 5702 5700 5697 5696 5692 5688 5685 5682 5681 5679 5677 5675 5673 5673 5672 5670 5667 5665 5663 5661 5658 5653 5651 5651 5650 5648 5646 5644 5642 5641 5643
5738 5734 5734 5730 5724 5719 5714 5711 5709 5705 5701 5699 5697 5694 5691 5689 5686 5682 5677 5675 5673 5673 5672 5671 5669 5668 5667 5663 5660 5658 5657 5657 5656 5654 5652 5651 5648 5645 5641 5637 5634 5632 5633
5729 5727 5725 5721 5716 5711 5707 5704 5702 5698 5694 5692 5690 5689 5686 5683 5680 5675 5670 5669 5667 5666 5666 5666 5664 5662 5660 5657 5653 5651 5649 5650 5649 5648 5646 5644 5642 5640 5636 5631 5629 5625 5626
5720 5718 5715 5711 5707 5703 5699 5696 5693 5690 5686 5684 5683 5682 5680 5678 5674 5669 5665 5662 5660 5659 5658 5657 5657 5655 5651 5648 5645 5643 5643 5641 5639 5639 5638 5638 5637 5637 5635 5632 5627 5623 5621
5706 5704 5702 5700 5698 5694 5690 5687 5683 5679 5675 5674 5672 5671 5671 5669 5666 5662 5657 5653 5652 5649 5648 5648 5646 5643 5640 5637 5634 5633 5632 5628 5628 5628 5628 5630 5630 5630 5631 5630 5628 5624 5622
5691 5689 5687 5686 5684 5681 5679 5676 5673 5670 5666 5663 5661 5659 5658 5658 5656 5653 5648 5644 5640 5637 5637 5636 5632 5629 5626 5626 5625 5623 5620 5618 5618 5618 5619 5621 5622 5623 5622 5622 5621 5619 5617
5676 5675 5673 5672 5670 5667 5666 5665 5661 5657 5654 5652 5650 5647 5645 5643 5641 5638 5635 5630 5627 5624 5623 5622 5619 5618 5616 5615 5616 5614 5612 5611 5610 5610 5611 5612 5612 5612 5611 5611 5610 5609 5607
5661 5660 5660 5658 5657 5655 5652 5650 5648 5645 5643 5639 5638 5636 5633 5630 5625 5622 5619 5617 5614 5611 5606 5605 5605 5606 5606 5607 5607 5606 5605 5604 5601 5601 5600 5599 5600 5599 5600 5600 5600 5600 5597
5647 5646 5646 5646 5645 5643 5642 5640 5638 5635 5632 5629 5626 5623 5621 5617 5613 5609 5605 5602 5597 5592 5588 5591 5591 5592 5592 5593 5593 5593 5594 5593 5592 5591 5589 5589 5588 5588 5588 5589 5588 5588 5588
5633 5633 5633 5634 5633 5632 5631 5629 5627 5624 5621 5618 5615 5612 5608 5604 5600 5595 5591 5587 5583 5577 5575 5578 5579 5579 5578 5578 5578 5578 5579 5579 5579 5578 5577 5577 5577 5577 5576 5576 5576 5576 5577
5622 5622 5621 5621 5620 5620 5619 5617 5616 5613 5611 5609 5605 5600 5595 5590 5586 5582 5577 5572 5572 5569 5568 5567 5566 5565 5564 5563 5563 5563 5563 5563 5563 5562 5563 5564 5564 5564 5564 5565 5565 5566 5567
5610 5610 5610 5609 5608 5608 5607 5606 5604 5601 5598 5596 5594 5589 5582 5577 5572 5568 5562 5558 5559 5558 5556 5554 5552 5551 5550 5549 5548 5547 5547 5547 5547 5548 5549 5550 5552 5553 5553 5555 5556 5557 5558
5599 5598 5597 5597 5597 5596 5595 5592 5589 5586 5583 5580 5576 5572 5567 5562 5558 5555 5550 5547 5544 5543 5541 5539 5538 5536 5534 5533 5533 5533 5533 5533 5534 5535 5537 5539 5540 5542 5543 5545 5546 5548 5550
5587 5587 5585 5585 5584 5582 5579 5576 5572 5569 5565 5562 5558 5553 5546 5544 5542 5539 5536 5532 5529 5526 5525 5523 5522 5521 5520 5519 5519 5519 5520 5520 5522 5523 5525 5528 5529 5531 5532 5535 5537 5539 5542
5573 5573 5573 5572 5570 5567 5563 5560 5557 5552 5548 5544 5541 5538 5531 5528 5525 5522 5519 5516 5514 5511 5510 5508 5508 5508 5507 5507 5507 5508 5508 5509 5510 5512 5514 5517 5519 5522 5524 5526 5529 5531 5534
5560 5560 5559 5557 5555 5551 5548 5545 5541 5536 5532 5527 5523 5520 5515 5511 5508 5505 5503 5500 5499 5497 5496 5496 5495 5496 5496 5496 5495 5496 5496 5498 5499 5501 5503 5507 5511 5514 5517 5519 5522 5524 5527
5547 5546 5544 5542 5538 5535 5532 5528 5524 5519 5515 5511 5507 5503 5499 5496 5494 5492 5490 5488 5487 5486 5485 5485 5485 5485 5485 5486 5486 5486 5486 5487 5489 5492 5494 5497 5502 5506 5510 5513 5516 5519 5521
5533 5530 5528 5525 5522 5518 5514 5510 5506 5502 5499 5495 5492 5489 5486 5484 5482 5480 5478 5477 5476 5476 5476 5476 5476 5476 5477 5477 5478 5478 5478 5479 5480 5482 5486 5490 5495 5500 5504 5508 5512 5515 5519
5517 5514 5511 5508 5504 5501 5498 5495 5492 5488 5485 5481 5478 5475 5474 5472 5471 5469 5468 5467 5467 5468 5469 5469 5469 5470 5470 5470 5471 5471 5472 5473 5475 5476 5478 5484 5490 5495 5500 5504 5509 5512 5516